Tracking 18032 objects as of 27-March-2017
HD Live streaming from Space Station
objects crossing your sky now

TURKSAT 2A

Track TURKSAT 2A now!
TURKSAT 2A is classified as:


NORAD ID: 26666
Int'l Code: 2001-002A
Perigee: 36,331.7 km
Apogee: 36,432.2 km
Inclination: 1.0 °
Period: 1,466.3 minutes
Semi major axis: 42752 km
RCS: 3.9 m2 (large)
Launch date: January 10, 2001
Source: Turkey (TURK)
Launch site: FRENCH GUIANA (FRGUI)

32 Ku-band transponders; direct-to-home voice, video, and data transmissions to countries between central Europe and the Indian subcontinent.
Your satellite tracking list
Your tracking list is empty





NASA's NSSDC Master Catalog

Two Line Element Set (TLE):
1 26666U 01002A   17083.96587912 -.00000157 +00000-0 +00000-0 0  9999
2 26666 000.9768 085.9040 0011760 235.9752 038.0315 00.98209559059182
Source of the keplerian elements: AFSPC